Theta_e
302 302 303 303 303 303 303 304 305 306 307 307 307 306 306 306 307 308 309 309 309 309 310 309 309 310 310 309 310 311 311 311 310 309 308 307 307 307 307 310 312 314 315 314 314 312 310 311 312 312 312 312 312 314 313 314 312 311 317 319 320 323 318 315 314 312 315 319 315 312 312 313 313 312 312 312 313 313 313 313 313 314 313 314 312 311 311 310
302 303 303 303 303 303 304 305 306 307 307 307 307 307 307 307 308 308 308 309 309 309 310 309 310 310 310 310 309 310 311 311 310 309 307 306 307 307 307 307 308 310 311 310 309 308 308 310 312 312 311 311 312 313 313 314 312 314 318 317 322 323 315 312 312 312 312 315 314 312 312 312 313 312 311 313 312 311 313 313 313 313 313 313 312 311 311 310
303 303 303 303 303 303 305 306 307 307 307 308 308 308 308 308 308 309 309 309 309 310 310 310 310 310 311 310 309 310 311 311 310 308 306 306 307 307 307 307 306 307 307 307 307 307 307 308 310 311 311 311 312 313 313 314 313 314 313 317 325 319 311 310 311 311 311 312 313 312 313 312 312 312 312 312 312 312 312 312 311 312 313 313 312 311 310 310
302 303 303 303 303 304 306 307 307 307 308 309 309 309 309 309 309 309 309 310 309 310 310 310 311 310 310 309 308 309 310 313 311 307 306 306 307 307 307 307 307 307 307 307 307 308 308 308 310 311 311 311 312 314 313 312 313 313 313 319 321 313 311 311 310 311 310 310 312 312 313 312 311 312 312 311 312 313 311 309 310 311 312 313 312 312 310 310
303 303 303 303 303 305 307 307 308 308 309 309 309 309 309 310 310 310 310 310 310 310 310 310 310 309 310 310 311 310 311 317 312 306 307 306 307 308 307 307 307 307 307 307 308 309 309 309 310 310 311 311 312 313 313 312 312 313 315 316 313 310 312 311 309 311 309 309 311 311 312 312 311 311 311 312 313 313 310 310 311 310 310 311 311 311 311 311
304 304 304 304 304 306 307 308 308 308 309 309 309 310 310 310 310 310 310 310 310 309 309 309 309 309 310 311 312 312 314 316 311 306 307 306 307 307 307 308 307 308 308 308 309 309 310 310 310 310 310 312 313 313 313 312 311 313 315 311 309 311 311 310 310 310 309 310 310 311 312 311 311 311 311 311 312 312 310 311 312 312 311 311 311 310 311 311
304 304 304 304 305 307 307 308 308 308 309 309 310 310 310 310 310 310 310 310 309 309 309 308 309 310 311 311 311 311 311 310 308 307 308 307 308 308 308 309 308 309 309 309 309 309 310 309 310 310 311 314 314 314 314 313 311 314 318 312 309 310 309 310 309 309 309 309 310 310 311 311 311 312 311 310 311 311 311 311 311 312 312 312 312 311 311 312
305 304 305 305 307 308 308 308 308 309 310 310 310 310 310 310 310 310 309 309 309 309 309 309 311 311 312 313 311 310 309 308 308 308 308 309 309 309 309 310 309 310 310 310 310 310 310 309 311 310 312 314 313 315 314 313 314 317 318 312 309 309 309 310 309 309 309 309 310 310 310 310 311 311 310 310 311 311 311 311 311 311 311 311 311 312 312 312
306 306 307 308 308 308 308 308 309 310 310 310 310 310 310 310 309 310 309 309 308 309 309 310 311 311 311 312 312 313 309 307 309 309 309 309 309 309 309 310 310 310 310 311 310 310 310 310 311 311 313 313 312 316 313 313 318 316 314 311 310 310 310 310 309 309 309 309 310 309 310 309 309 310 309 309 310 310 310 310 310 311 311 311 310 311 312 312
307 308 308 308 308 309 308 309 309 310 310 310 310 310 310 310 310 310 309 309 308 309 309 310 311 311 311 311 314 314 309 308 309 309 309 309 309 309 309 310 310 310 310 311 310 310 311 310 311 311 312 312 313 315 312 315 318 313 311 311 310 310 310 310 309 309 310 309 309 309 311 309 308 309 310 310 310 310 310 311 310 310 310 310 311 310 311 312
308 309 309 309 309 309 309 309 310 310 310 310 310 310 310 310 310 310 309 309 309 309 310 311 312 312 312 310 312 311 308 308 309 309 309 309 310 310 309 309 310 310 310 311 310 310 310 310 310 310 313 313 313 314 312 313 313 311 310 312 313 311 309 309 308 309 309 309 309 309 310 309 308 309 309 310 311 310 309 311 311 310 311 310 311 311 310 310
309 309 308 309 308 309 309 310 310 310 310 310 310 310 310 310 310 310 310 309 309 309 311 312 312 314 313 310 309 309 309 309 309 309 310 310 310 310 310 310 310 310 310 310 310 310 309 310 310 311 314 313 314 314 312 311 311 311 310 315 321 316 313 311 309 309 309 310 309 309 311 312 310 310 310 310 311 310 309 310 311 311 311 311 311 310 310 310
309 309 308 309 309 309 310 310 311 310 310 310 310 310 310 310 310 310 310 310 310 310 311 313 313 313 313 311 310 310 310 309 309 309 310 310 310 311 310 310 311 310 310 310 310 310 309 310 309 311 313 313 315 314 311 310 310 313 312 314 319 320 323 316 308 310 309 309 310 309 312 315 313 310 310 311 311 310 309 309 310 311 311 311 311 311 310 310
308 308 308 309 309 309 310 311 310 310 310 310 311 311 311 311 310 310 310 310 311 310 312 314 315 314 312 311 311 311 311 310 310 309 310 311 311 311 311 311 311 311 311 310 310 311 311 311 311 311 311 311 312 311 313 312 311 316 316 317 315 316 328 320 307 309 310 309 309 309 313 313 312 310 309 311 312 310 309 310 311 311 311 311 311 311 311 311
308 308 308 309 309 310 311 311 310 310 310 311 311 311 311 311 311 310 310 310 311 311 313 314 315 314 312 311 311 311 311 311 310 310 310 310 311 311 311 311 311 311 311 311 310 311 312 312 312 312 310 310 312 315 321 319 315 316 316 324 322 315 324 321 309 309 311 311 308 309 314 314 311 310 310 311 311 311 310 310 311 311 311 311 311 311 311 311
307 308 308 309 309 310 311 311 310 310 311 311 311 311 311 311 311 311 311 311 312 313 313 314 314 314 313 311 311 311 311 311 311 311 310 310 310 310 310 311 311 312 311 311 312 311 311 312 311 311 311 313 315 318 324 325 326 323 316 321 323 316 317 317 312 310 309 311 310 310 314 314 312 310 310 311 311 311 310 310 311 311 311 311 311 311 311 311
307 308 308 309 310 311 311 311 310 311 311 311 311 311 311 311 311 311 311 311 313 314 313 313 313 313 313 311 310 310 310 310 310 310 310 310 310 310 310 310 311 311 311 312 313 311 312 312 311 313 314 313 314 317 321 324 327 327 320 319 319 315 314 314 315 312 309 311 312 312 312 311 311 310 310 310 310 310 309 309 310 310 311 311 311 311 311 311
308 308 309 309 310 311 311 311 311 311 310 310 310 310 310 311 311 311 311 311 313 314 313 312 312 315 314 310 310 310 310 310 310 309 310 310 310 310 310 310 311 312 312 313 313 312 313 312 314 322 321 315 315 320 317 314 317 320 319 318 317 316 314 314 315 312 312 314 313 314 313 311 310 310 309 310 310 309 309 309 310 310 311 311 311 311 311 311
308 309 309 309 310 311 311 311 311 311 310 311 311 311 311 311 310 310 311 311 312 314 314 311 311 314 313 310 310 310 310 310 309 309 309 310 311 311 311 311 312 312 312 314 316 312 312 316 321 326 325 318 316 316 314 312 313 316 315 314 316 316 315 314 314 314 312 314 316 316 315 312 310 309 309 309 309 308 309 309 309 310 310 310 311 311 311 311
308 309 309 310 310 310 311 311 311 311 311 312 313 313 314 313 313 311 310 311 310 311 311 310 310 310 309 309 310 310 310 310 310 309 310 311 311 312 313 312 312 314 313 317 320 314 315 326 323 318 318 317 314 313 313 314 314 315 315 316 316 315 314 313 314 316 311 312 320 319 313 310 309 309 308 308 309 309 309 308 309 309 310 310 311 311 312 311
309 309 310 310 310 311 311 311 311 311 312 313 313 313 313 314 315 313 310 311 310 310 310 309 309 309 309 309 310 310 310 310 310 309 309 311 312 313 313 314 316 317 315 315 315 316 323 326 318 314 313 313 313 313 314 315 315 316 316 317 317 315 315 313 313 316 311 311 315 314 310 309 309 309 309 309 310 311 309 308 308 310 311 312 311 311 311 311
309 309 310 310 311 311 311 311 311 311 311 312 311 311 310 311 312 311 311 311 310 310 310 309 309 310 310 309 309 310 309 309 310 308 309 310 312 314 313 315 319 318 317 317 318 324 329 321 313 312 309 310 315 315 315 316 316 318 316 316 316 315 315 315 316 316 312 309 310 310 310 309 309 309 310 310 309 310 311 310 310 311 312 313 312 311 311 311
309 310 311 310 311 311 311 311 311 311 311 311 310 310 310 310 309 309 311 312 311 310 310 310 310 310 311 310 309 311 309 309 309 308 308 309 311 314 313 314 321 322 319 320 322 323 322 316 311 308 307 313 318 318 319 320 318 316 314 315 316 315 313 314 314 311 310 310 310 311 310 310 311 310 310 310 307 309 312 312 312 312 312 313 312 311 310 310
310 310 311 311 311 310 311 310 310 311 310 310 310 310 310 310 310 310 311 313 313 312 311 310 310 310 310 310 310 312 312 310 309 308 308 309 310 313 313 313 320 324 320 319 321 319 316 311 309 309 312 316 317 318 319 318 316 314 312 314 316 315 312 310 310 308 309 311 311 311 312 316 317 312 311 310 307 309 310 310 310 310 312 311 310 309 308 309
310 310 311 310 310 310 310 310 311 310 309 310 310 310 310 310 310 309 312 317 314 311 313 311 310 310 310 311 311 311 312 311 310 309 309 309 310 312 313 312 315 320 321 319 319 319 317 309 307 313 318 317 317 318 315 312 314 313 312 313 312 313 311 309 310 309 311 313 312 310 314 322 320 314 313 311 310 309 308 308 308 309 311 309 308 308 307 307
310 311 310 310 310 310 310 311 310 309 310 311 309 310 310 310 311 309 314 324 319 311 313 312 310 311 310 311 311 311 313 312 310 310 309 309 310 313 314 311 311 315 317 315 312 313 314 310 310 315 316 318 321 317 312 311 312 312 312 312 311 312 311 310 309 310 312 313 310 309 315 320 316 313 314 311 311 311 308 309 308 307 310 308 307 308 307 307
311 310 310 311 310 310 312 311 310 310 312 311 310 311 309 310 311 308 316 325 318 310 312 313 311 310 310 310 310 311 312 310 309 310 310 308 309 312 314 312 311 312 311 313 315 312 312 315 317 318 317 321 321 315 312 310 309 313 313 311 312 312 310 309 307 308 312 312 312 311 313 317 315 316 316 311 311 312 310 311 309 307 308 308 307 308 307 307
311 310 311 310 310 312 313 311 309 311 312 311 310 310 309 311 309 311 322 320 311 310 311 311 311 309 310 311 309 310 311 309 308 311 310 307 307 310 313 311 311 313 310 312 315 311 310 315 316 315 316 317 316 313 311 308 308 314 314 310 310 310 309 308 308 310 311 311 317 318 313 314 316 316 314 310 311 312 311 313 312 308 307 308 308 308 308 307
310 310 311 310 311 312 312 310 310 310 311 310 310 309 310 310 308 318 328 314 307 312 311 310 311 308 308 312 311 308 310 310 307 309 310 307 307 308 310 308 307 313 311 308 313 312 309 310 309 311 314 314 315 314 310 308 309 312 311 310 310 309 310 309 308 312 311 310 320 323 314 312 312 310 309 310 310 311 313 316 315 309 306 308 308 307 308 307
311 311 310 310 311 311 311 311 310 310 310 309 309 310 309 311 319 331 324 309 309 312 309 309 309 307 308 313 313 307 309 310 307 309 309 306 306 306 308 306 305 314 314 309 314 312 308 307 306 309 312 310 312 311 307 306 307 308 311 313 312 313 314 312 311 312 310 311 321 323 314 309 310 312 312 311 309 309 313 316 316 311 308 308 308 307 308 307
311 311 310 310 311 310 311 311 310 310 309 309 309 309 309 316 326 329 314 307 313 312 309 311 308 308 311 312 310 307 309 309 306 309 311 308 305 304 306 306 306 314 315 310 312 312 313 314 309 307 307 305 308 310 309 308 305 306 313 314 311 312 315 316 317 316 309 307 316 320 312 308 310 315 314 311 309 310 312 314 316 314 310 308 309 308 308 307
311 311 311 311 310 310 311 310 310 310 308 309 309 309 318 324 320 316 312 310 313 309 307 309 308 309 312 313 309 306 310 310 307 309 312 311 307 304 305 306 306 309 309 308 310 312 318 316 308 307 306 303 307 310 311 312 309 308 312 313 312 313 312 312 314 313 308 306 310 310 308 308 310 312 311 310 310 310 309 309 312 313 309 307 308 307 308 308
311 311 311 310 310 310 310 310 310 309 308 310 310 312 323 326 313 309 313 312 308 306 306 308 310 311 313 314 310 307 310 310 307 308 308 311 311 307 305 304 305 307 306 309 308 309 316 314 309 310 308 305 308 307 307 311 310 309 311 313 315 313 306 306 310 308 307 308 306 305 306 310 310 311 313 311 308 306 306 307 308 308 307 307 307 307 308 307
310 310 310 310 310 310 310 310 308 308 310 311 314 318 320 317 310 308 313 312 307 306 307 307 312 316 314 311 309 308 310 310 308 308 309 311 312 311 308 305 304 305 306 309 306 306 311 311 311 310 306 307 310 308 306 307 308 309 310 310 313 313 306 306 310 308 307 308 306 305 308 311 310 309 311 309 305 305 305 306 306 305 306 307 306 307 306 305
310 310 310 309 309 309 308 309 308 309 312 311 313 318 317 312 309 310 312 311 308 307 308 307 311 317 316 311 309 307 306 308 309 309 310 310 310 310 307 305 304 304 306 308 307 306 307 310 312 308 304 307 309 307 305 307 310 310 310 313 314 311 308 309 311 308 307 308 309 309 309 310 308 307 308 306 305 305 304 305 305 305 306 306 305 306 305 305
308 308 308 307 308 308 309 310 309 310 312 310 311 312 311 308 307 308 307 306 306 305 309 314 313 314 314 312 312 309 305 307 309 310 310 309 309 309 307 306 304 303 304 305 307 307 307 311 314 307 305 307 306 306 305 306 308 309 310 314 312 306 306 310 311 309 307 307 310 309 307 307 307 307 309 309 308 307 305 304 304 304 305 305 304 305 305 305
307 308 308 308 309 309 310 310 309 311 309 310 313 311 307 305 304 305 303 303 303 302 309 317 312 308 310 310 310 309 308 310 309 308 309 309 307 307 307 307 303 302 302 302 306 308 305 309 313 308 308 308 303 303 305 303 304 308 310 312 309 307 309 309 309 310 308 307 308 308 306 305 306 308 310 309 309 308 305 304 304 303 303 303 304 305 305 305
308 309 309 309 310 309 311 310 309 311 308 310 313 311 308 307 303 302 302 301 302 305 310 314 309 306 309 308 308 308 310 311 311 309 309 309 307 305 306 306 303 302 301 300 305 308 304 307 313 309 307 307 303 303 308 307 304 304 305 307 307 308 310 308 307 308 307 306 307 308 307 305 306 310 311 308 307 306 304 305 305 304 303 303 304 305 305 305
309 310 309 309 309 309 310 311 309 309 309 311 315 313 308 308 304 301 302 301 302 307 309 308 307 308 309 307 307 310 311 309 309 310 309 307 305 304 304 303 302 303 301 300 304 307 305 306 310 311 306 306 307 306 309 312 309 305 305 308 309 308 309 308 308 308 307 307 308 307 306 305 307 311 309 305 305 304 304 304 304 303 303 303 304 304 305 305
310 309 309 308 309 308 308 310 309 311 312 311 312 311 307 307 305 302 303 302 303 306 307 307 308 309 310 309 308 309 309 308 308 309 308 305 304 305 303 301 303 303 300 300 303 305 306 306 308 312 309 306 307 306 306 308 309 309 309 309 309 308 309 308 306 308 308 308 308 307 306 305 305 306 305 303 304 304 304 304 303 303 303 304 304 303 304 305
310 310 309 308 310 308 308 310 308 308 312 312 309 309 307 305 305 304 303 303 304 305 305 307 308 308 309 310 310 308 307 309 310 308 307 305 304 305 303 299 301 302 301 304 306 304 306 306 306 310 308 306 306 306 305 306 306 307 308 309 310 309 307 305 305 308 308 307 307 306 304 304 304 304 303 303 304 303 303 303 303 303 303 303 303 303 303 303
310 311 310 308 310 308 309 312 304 304 311 310 307 307 306 305 305 305 304 304 305 304 305 306 307 308 307 307 309 309 308 310 310 308 307 305 304 306 303 299 300 300 301 305 305 301 302 303 304 307 307 305 305 303 301 302 304 305 306 309 309 306 305 305 306 307 307 306 305 305 304 304 304 304 304 303 303 302 302 302 302 303 302 303 303 302 302 302
308 309 308 308 310 307 309 312 305 305 308 305 303 303 304 304 304 305 305 304 305 305 306 306 306 306 305 305 307 309 308 307 307 308 308 306 305 304 301 299 299 299 301 305 305 300 301 303 304 308 308 304 304 302 299 299 303 305 306 306 306 305 306 306 306 305 305 306 305 304 304 304 304 304 303 301 299 299 299 301 301 301 300 300 299 298 298 299
306 307 308 309 309 308 312 315 310 309 308 305 304 304 304 302 302 305 307 304 304 306 307 308 305 304 304 304 306 309 307 305 306 307 306 306 305 302 299 299 299 300 301 304 303 300 301 306 307 307 307 304 303 303 301 302 304 304 305 305 304 304 305 306 305 304 305 306 305 304 304 304 304 303 300 297 296 295 297 299 299 298 297 296 296 296 295 296
308 307 306 307 308 308 310 310 309 312 313 312 309 307 307 304 301 304 305 303 303 304 306 307 304 303 305 305 307 309 307 305 306 306 305 306 306 302 299 299 299 300 300 300 299 299 303 308 307 306 305 303 303 304 302 303 303 303 304 304 303 303 303 305 305 304 306 306 305 305 304 303 302 300 296 294 294 294 295 297 298 297 296 295 295 294 294 294
310 311 309 308 306 306 306 304 306 310 313 316 314 307 308 307 302 302 304 303 303 303 305 306 303 304 307 306 308 310 309 306 305 307 307 308 309 304 300 300 299 299 299 298 298 299 304 307 306 306 307 305 304 304 303 303 304 304 304 304 304 303 302 303 304 304 305 304 303 304 304 303 301 296 293 293 293 293 293 295 297 297 295 295 294 294 294 294
310 311 311 310 307 306 308 305 305 306 308 312 311 306 309 309 304 304 306 304 303 303 304 305 304 305 307 306 307 310 311 308 307 306 306 307 308 304 300 300 299 299 299 297 297 300 304 307 307 306 307 306 305 304 303 304 304 303 303 303 303 303 302 302 303 303 304 304 303 303 302 302 298 293 293 293 292 292 293 293 296 297 295 294 293 293 293 293
310 308 306 308 308 309 310 307 304 304 305 308 308 307 310 311 308 308 305 303 304 304 304 307 307 306 306 304 305 309 309 309 309 308 306 305 305 305 304 302 299 299 299 298 298 299 302 307 308 305 305 306 305 303 303 303 302 302 302 302 302 303 303 303 303 302 302 302 301 300 298 297 295 293 292 292 292 292 292 292 294 295 295 294 293 292 292 292
308 307 305 306 307 306 307 306 305 304 304 307 309 308 310 313 310 306 303 305 308 305 303 307 307 306 306 305 305 308 307 306 307 307 305 304 303 305 309 307 301 299 298 299 299 298 300 308 308 305 305 304 302 303 303 302 302 302 302 302 301 302 302 302 302 300 299 298 297 295 295 294 293 292 292 292 292 292 292 292 292 292 293 293 292 292 292 292
307 307 305 306 305 304 305 305 305 308 308 307 309 307 308 312 311 306 303 305 308 306 303 304 304 304 304 305 307 308 305 303 305 304 303 303 302 303 307 307 303 300 299 300 301 299 299 306 307 304 304 303 301 303 303 303 303 302 301 301 300 300 300 299 297 296 295 294 293 293 293 292 292 292 292 291 292 292 291 291 291 292 292 292 292 292 292 291
307 306 305 307 306 304 306 304 304 313 315 310 309 307 307 310 309 306 304 302 302 304 303 302 303 303 304 306 308 308 303 300 300 301 299 300 301 302 302 301 300 301 302 302 302 301 300 303 305 305 304 302 301 302 302 302 303 302 300 298 298 299 298 296 294 293 293 292 292 292 292 291 291 291 291 291 292 292 291 292 291 291 292 292 292 291 291 291
307 307 306 309 308 304 304 303 304 311 311 306 306 306 306 306 304 304 306 304 301 302 301 299 301 305 309 309 307 304 300 298 298 297 297 297 297 297 298 297 296 298 301 301 301 302 301 301 304 305 303 302 301 301 301 301 302 302 299 296 296 297 296 296 295 293 292 291 291 291 291 291 291 291 290 291 291 292 292 292 291 291 291 291 291 290 290 291
Wind_Speed
5 5 6 5 3 2 3 3 3 3 3 3 3 3 2 0 1 3 3 4 6 8 11 13 13 10 5 3 5 7 8 6 6 9 9 5 4 5 5 5 5 6 7 7 9 10 7 2 4 5 4 8 8 7 5 3 2 1 2 2 4 3 3 2 1 3 2 2 3 8 14 10 4 9 11 8 11 13 11 14 15 16 22 22 17 16 15 11
7 7 5 4 3 4 4 4 4 4 4 4 4 4 3 1 2 3 5 6 8 11 13 13 12 9 3 3 6 7 6 4 5 9 9 6 2 2 2 3 4 5 6 8 9 9 8 5 3 5 5 9 8 6 4 1 1 0 2 1 4 4 3 1 0 2 3 3 7 9 13 11 7 10 12 6 8 12 12 16 17 18 21 21 20 19 19 15
7 6 5 4 5 5 5 5 5 5 5 5 5 5 4 3 4 5 6 8 10 12 12 12 11 8 2 5 8 7 5 2 5 9 9 6 2 1 2 2 2 3 4 5 6 6 7 6 4 6 8 10 7 6 3 1 1 1 2 1 5 4 2 2 3 2 5 3 5 7 11 12 9 11 11 6 8 9 11 15 16 21 27 24 20 19 20 19
7 6 5 6 6 7 6 6 5 5 5 6 6 6 5 5 5 6 7 8 9 10 11 11 8 1 4 7 8 6 2 1 5 8 6 3 1 1 2 2 2 3 4 4 4 4 4 4 2 5 9 8 6 4 1 1 1 1 2 4 5 2 3 2 4 4 6 4 4 7 9 9 11 12 12 8 5 7 14 23 23 26 31 28 24 22 22 23
6 6 6 7 8 7 7 6 5 6 6 6 6 5 6 6 6 6 6 6 6 8 7 6 7 9 10 8 7 4 3 2 5 6 4 2 2 1 1 1 2 3 4 3 3 3 3 3 3 7 7 5 4 2 0 1 0 2 2 4 3 1 1 3 4 5 6 6 7 5 7 6 10 11 13 12 7 10 15 21 23 26 28 27 26 25 26 28
7 7 8 8 8 7 6 6 5 6 6 6 6 6 7 7 7 6 4 3 4 5 7 11 13 12 10 8 7 4 2 1 4 5 4 3 2 1 1 1 2 3 4 3 2 2 5 6 7 8 4 3 3 1 0 2 0 2 4 2 1 1 2 4 6 6 6 5 5 2 4 6 7 9 14 17 20 23 21 17 14 15 18 20 24 26 28 30
9 10 10 9 8 7 6 6 5 5 5 5 6 7 8 8 8 6 4 3 5 8 10 11 11 11 10 8 8 6 4 2 3 3 3 3 2 1 1 2 2 4 4 4 3 4 7 8 8 8 4 3 2 1 1 4 2 3 4 3 1 3 4 5 6 7 5 6 5 3 6 6 6 7 10 20 30 31 29 25 20 15 13 15 20 25 28 30
12 11 10 9 8 7 6 5 5 4 4 5 7 8 9 9 8 5 5 5 6 8 8 9 10 9 6 4 4 3 4 3 2 1 2 2 2 2 3 3 3 4 4 5 6 7 8 7 8 7 3 2 1 0 2 5 3 3 3 4 3 4 5 5 6 7 6 8 7 6 8 10 10 8 11 26 36 33 33 32 30 27 24 23 24 25 27 30
12 11 9 8 7 6 5 5 4 4 5 6 7 9 10 12 9 3 7 7 8 9 9 8 6 4 5 5 5 3 4 4 2 1 2 2 3 5 4 4 5 4 4 6 7 7 6 6 6 5 2 1 1 0 2 2 2 1 3 5 5 5 4 6 7 7 7 7 6 5 9 12 12 8 14 32 36 30 30 31 32 32 31 32 32 30 30 31
10 9 8 7 6 5 4 4 4 5 5 6 7 9 11 13 10 5 9 9 9 9 8 6 5 7 7 6 3 2 4 5 2 1 2 3 7 9 6 5 6 5 5 6 7 6 5 4 5 3 3 2 1 1 1 1 2 2 4 6 7 9 8 7 8 8 7 7 7 6 8 13 13 3 10 30 29 21 19 21 26 29 32 33 33 34 32 34
9 8 7 6 5 4 3 3 5 6 5 6 8 10 10 12 10 7 9 9 9 8 7 7 6 9 9 6 4 3 4 4 2 2 2 4 9 12 9 6 6 5 5 6 7 5 4 5 6 4 3 2 0 2 2 2 2 4 5 7 9 11 11 10 10 9 6 5 6 7 8 13 10 3 16 30 27 20 18 18 21 24 30 32 33 34 33 34
8 7 6 5 4 3 4 5 7 6 6 7 8 10 9 8 9 8 6 6 8 7 6 6 5 5 5 7 11 8 5 4 2 2 3 4 7 11 11 9 7 5 5 6 7 6 5 5 7 4 2 1 1 2 2 2 2 5 3 4 8 7 8 12 11 9 6 2 3 3 6 9 5 10 25 28 25 25 22 22 25 24 27 29 31 33 32 32
7 6 5 4 3 4 6 7 7 6 6 7 7 7 6 4 6 7 6 8 9 8 6 6 7 6 3 6 11 10 7 6 5 4 4 4 4 6 8 9 10 8 7 7 7 5 2 3 4 3 1 1 1 1 3 2 2 5 2 1 5 7 6 9 7 7 5 3 3 2 4 8 6 14 23 22 22 25 23 26 30 28 29 29 29 30 31 31
6 5 4 4 3 5 7 7 6 6 7 7 7 5 5 4 4 5 7 9 8 6 5 6 7 6 4 6 8 11 10 9 8 7 5 3 3 3 4 6 9 9 9 9 6 5 4 2 3 2 1 2 1 1 3 3 1 2 2 1 2 3 5 7 2 6 3 3 5 4 2 10 10 13 19 19 20 21 21 27 29 29 30 29 29 29 30 30
6 5 4 4 4 7 8 7 6 7 7 6 6 6 5 5 5 5 6 6 5 4 3 4 5 3 4 5 6 10 11 11 10 9 7 6 6 5 5 7 8 8 10 10 7 6 7 5 4 2 2 4 4 3 4 4 2 2 2 4 3 1 5 9 4 7 5 3 5 5 3 10 12 13 14 14 16 17 18 25 27 29 30 30 31 30 30 31
6 5 4 5 6 8 8 6 6 8 7 6 7 7 6 7 8 9 9 8 7 6 3 2 3 3 4 4 6 9 12 12 12 12 10 9 9 9 10 9 6 7 9 9 8 6 5 6 5 4 5 5 4 3 3 4 5 3 3 3 5 4 5 7 7 3 3 1 2 4 4 7 11 17 22 20 20 22 22 27 30 29 29 31 32 31 31 31
6 6 6 7 9 9 8 5 7 8 8 8 7 6 5 4 5 8 9 8 7 6 7 5 2 4 4 6 6 10 12 11 12 14 13 10 9 10 11 9 6 7 8 9 10 8 5 4 2 2 5 5 3 2 4 5 5 4 3 2 4 4 5 5 7 6 2 2 3 4 5 10 14 21 33 34 27 24 23 27 31 31 31 32 31 31 31 30
7 8 8 9 9 9 6 4 7 9 11 11 11 12 11 9 6 4 2 1 3 4 7 8 4 4 5 10 9 10 11 9 13 17 16 12 9 10 11 10 9 10 11 10 8 6 4 3 1 1 4 5 5 6 5 2 3 4 4 3 5 5 5 5 7 5 4 3 5 5 7 13 16 18 30 36 28 22 24 26 30 32 32 32 30 31 31 29
9 9 9 10 9 7 6 5 8 11 13 14 13 12 13 15 16 13 9 8 8 6 4 9 9 3 1 10 11 9 7 8 14 20 18 14 10 9 10 10 10 10 10 8 5 3 2 3 4 3 4 4 3 5 4 4 4 5 4 3 5 6 6 7 8 5 3 4 5 7 9 13 17 18 23 34 31 24 26 26 25 28 27 27 27 28 30 30
9 10 10 11 9 8 7 7 10 11 10 9 7 5 5 7 10 14 18 21 18 11 7 9 12 6 3 10 13 10 6 6 13 21 19 15 13 8 8 10 8 6 4 2 3 3 3 4 4 1 4 4 4 0 3 3 3 3 3 4 6 6 7 8 7 5 4 4 6 8 10 13 18 18 18 29 30 21 20 19 19 22 22 21 22 24 26 26
10 11 11 11 10 9 8 9 10 8 7 8 9 9 7 6 5 5 11 16 15 13 12 12 12 10 8 11 14 13 9 7 13 21 19 13 11 8 9 10 4 3 4 3 3 3 4 5 2 4 5 4 5 4 2 2 2 2 3 5 7 5 7 8 6 4 7 6 7 8 11 14 16 17 18 22 19 14 14 12 14 19 15 12 12 13 14 9
12 12 12 11 10 10 11 11 10 9 10 12 14 14 13 12 8 4 4 8 11 12 13 15 16 15 12 11 12 13 14 12 13 21 21 14 9 6 9 9 4 2 5 4 3 5 5 3 4 4 2 3 4 4 3 4 2 3 3 3 6 5 6 8 3 4 7 5 8 10 10 13 16 15 14 14 11 11 14 10 9 12 8 11 13 10 8 13
13 13 13 12 13 14 14 12 10 10 12 14 15 15 14 12 11 8 2 4 7 11 13 16 19 20 17 13 10 9 13 12 10 20 26 21 12 7 7 7 4 4 6 6 5 4 4 3 5 3 4 5 4 4 5 5 4 3 4 3 6 5 4 6 3 7 8 4 5 10 9 9 11 10 8 12 14 14 17 17 15 14 8 7 15 19 19 21
14 14 14 15 16 15 13 10 8 9 11 11 13 15 14 14 13 10 4 3 4 9 13 14 16 20 18 15 13 8 8 9 10 19 26 25 17 8 5 5 5 5 6 5 5 6 1 4 4 5 4 4 4 6 7 6 6 5 4 2 5 6 4 5 6 10 9 4 2 6 9 6 5 8 8 11 15 15 19 23 25 25 15 9 16 20 21 20
15 15 17 18 16 12 9 7 6 9 11 7 9 13 14 15 13 9 5 3 3 6 10 10 10 16 16 16 18 8 2 8 14 19 24 26 19 7 4 6 6 5 7 7 6 5 1 4 4 5 4 6 5 5 5 4 5 7 4 4 5 7 7 6 8 10 7 5 3 6 6 6 5 8 8 7 9 10 14 16 19 24 20 17 21 20 20 19
17 17 18 17 13 9 6 5 7 11 8 1 8 11 13 15 12 9 4 4 3 5 7 9 7 12 15 17 20 7 2 7 13 19 24 25 19 7 5 7 5 4 6 4 4 2 1 3 3 3 3 6 6 4 3 4 6 6 4 4 4 6 8 8 7 6 3 4 5 4 4 5 6 6 8 7 7 8 10 9 12 21 22 18 18 17 16 15
18 18 16 14 11 7 4 4 9 9 3 3 8 12 14 15 11 8 3 4 5 4 5 8 6 11 14 15 19 7 2 9 11 16 23 24 18 7 6 6 4 5 4 1 4 1 2 6 6 6 5 6 7 5 3 4 5 6 4 2 7 9 10 8 4 1 2 4 7 2 5 3 6 6 9 7 7 8 9 8 9 15 18 12 11 10 10 8
16 15 13 12 10 6 3 5 10 7 1 5 12 16 16 14 11 5 4 5 5 5 4 6 5 12 13 10 18 12 2 8 8 10 19 25 20 7 4 6 3 5 5 4 4 4 2 5 6 6 7 5 3 3 4 2 2 7 6 4 8 8 8 6 1 3 2 2 6 5 2 0 6 7 8 6 6 8 8 7 8 3 12 9 4 2 2 2
14 13 12 12 11 5 3 5 7 6 4 10 15 16 15 13 9 2 6 3 3 4 5 7 6 14 17 8 14 17 7 7 7 7 14 25 26 11 2 7 6 2 4 6 2 4 2 3 1 3 4 2 4 6 5 1 2 8 7 7 7 3 2 1 1 1 2 3 3 6 1 2 6 8 7 4 5 5 8 7 8 5 3 7 5 3 2 2
13 12 10 11 11 5 3 2 4 6 8 13 15 15 13 9 4 4 6 1 1 5 8 8 5 12 17 8 10 16 9 6 10 11 14 23 33 25 6 7 12 5 4 7 3 3 3 1 1 2 2 3 5 7 5 4 4 7 7 6 6 4 3 2 2 2 4 3 6 7 1 3 4 8 5 4 3 3 6 6 7 8 5 3 3 3 3 3
12 11 9 9 10 5 2 1 2 4 9 14 14 14 9 5 4 6 5 2 2 7 8 6 5 9 12 5 5 13 7 7 13 12 11 15 25 26 12 6 11 6 5 8 6 7 7 3 2 2 1 2 2 4 4 1 1 5 5 4 5 6 4 4 5 4 5 4 7 5 2 0 3 6 5 7 8 5 6 7 7 7 8 6 4 5 4 3
12 11 9 9 10 8 4 3 5 8 13 15 13 11 4 4 6 3 2 5 2 4 4 3 5 6 7 4 5 9 5 6 11 8 6 6 8 12 11 6 6 6 6 7 7 8 6 2 5 3 2 3 2 4 6 4 6 6 4 5 5 5 5 5 5 3 2 7 9 4 4 3 5 7 8 10 11 8 7 9 7 8 12 10 7 7 6 4
11 9 7 7 8 8 7 7 10 12 14 15 11 6 4 6 5 1 3 4 1 2 3 3 5 6 5 6 7 8 4 4 9 8 4 4 5 5 7 6 6 4 2 3 5 6 4 5 7 4 1 2 4 4 5 5 5 6 3 4 4 3 4 4 4 3 4 8 12 8 2 3 5 6 8 9 12 15 13 10 7 9 14 16 15 11 4 2
10 7 5 4 4 6 7 10 12 11 12 12 6 5 10 7 1 2 3 3 2 4 4 3 6 7 5 5 4 6 4 3 6 7 5 5 5 4 5 7 8 4 0 2 3 3 4 5 5 2 2 3 3 2 1 2 4 4 2 4 3 2 2 3 3 3 5 8 12 10 3 3 5 6 8 11 17 21 16 11 11 15 20 24 20 9 2 4
8 6 3 0 2 4 6 8 7 8 7 6 9 8 8 4 1 2 2 4 3 4 6 5 5 6 6 4 3 4 4 3 4 6 5 5 4 3 4 5 7 5 2 3 2 1 3 5 7 3 2 1 0 2 3 1 2 4 2 4 1 3 4 3 4 5 5 6 7 5 3 3 4 11 12 10 13 16 14 15 20 22 24 26 18 5 5 8
6 4 4 3 3 4 5 6 6 6 1 12 14 7 3 2 2 1 1 3 2 3 6 7 6 6 6 5 5 7 4 2 4 5 3 3 3 3 3 2 4 5 3 2 2 1 2 6 8 6 4 3 3 3 3 2 1 2 2 1 3 5 6 2 4 4 1 4 5 4 6 4 4 10 10 8 10 11 11 15 19 21 22 21 14 9 12 13
7 7 8 8 9 8 9 11 10 6 15 21 12 3 3 1 2 2 2 4 2 3 3 4 4 4 4 4 5 8 7 4 5 4 3 3 3 3 3 2 2 3 2 1 2 1 0 5 8 4 4 5 4 3 4 4 2 1 2 4 3 1 3 3 2 3 3 3 4 6 12 8 3 6 8 9 11 11 12 14 16 19 20 18 16 14 16 14
11 13 15 15 12 7 7 10 7 14 26 22 8 4 3 0 1 2 4 3 2 1 5 3 1 2 2 2 4 7 6 5 5 4 3 2 2 2 3 3 3 3 4 2 1 2 0 4 8 3 3 7 2 1 4 5 3 2 3 3 1 1 2 1 0 1 3 4 4 9 15 8 2 5 6 8 9 11 15 16 14 14 16 21 24 22 21 19
14 15 16 16 13 11 9 4 7 19 25 13 3 3 2 1 0 2 4 3 1 2 5 1 1 2 2 1 2 5 4 3 4 4 3 2 3 2 3 1 4 7 9 2 1 3 1 1 6 5 4 6 4 3 3 5 4 2 3 3 1 3 4 2 1 2 2 4 3 8 12 7 5 6 4 8 11 12 14 14 11 11 19 27 31 32 30 25
10 11 11 11 13 16 12 11 19 24 16 5 3 3 1 1 1 4 5 4 1 2 2 1 1 2 2 3 2 2 3 2 3 2 2 2 3 1 2 1 2 9 11 3 1 2 2 1 4 7 6 5 4 2 3 4 4 2 3 3 3 2 1 2 2 2 3 3 3 5 9 9 6 3 5 10 14 13 13 12 10 17 27 32 35 37 35 33
9 8 8 8 10 10 9 13 20 16 6 3 4 2 1 2 1 3 6 4 2 3 2 1 2 1 1 3 3 2 3 3 2 1 1 2 3 1 1 1 1 5 7 4 1 1 1 1 2 5 6 4 6 7 6 5 5 4 2 3 5 4 1 3 5 3 2 3 4 4 8 12 10 6 7 11 11 11 13 14 14 23 33 35 38 41 42 44
12 7 7 8 6 4 10 14 12 7 5 4 3 3 2 1 1 4 5 4 2 2 2 2 2 1 1 1 2 1 1 2 2 2 0 1 1 1 3 2 2 3 1 1 2 1 1 2 1 5 5 7 14 10 3 3 3 4 4 3 3 2 3 2 6 5 3 3 4 3 7 13 12 7 6 7 9 16 25 28 27 33 38 39 42 45 49 50
17 10 8 7 5 6 14 11 8 6 6 3 3 5 4 2 2 3 4 4 3 2 3 2 1 2 0 1 1 1 1 0 1 1 1 3 2 4 4 2 4 3 2 1 2 1 0 1 0 5 6 7 12 6 3 2 1 1 5 3 3 2 3 6 6 3 3 6 6 4 5 10 11 6 6 17 28 34 39 40 39 40 43 46 50 52 58 60
25 22 18 10 3 6 11 6 2 3 2 2 4 5 4 4 5 3 3 4 3 1 2 0 0 1 2 3 2 2 2 0 1 1 1 3 3 3 4 1 3 3 3 2 1 2 2 1 1 4 6 8 9 6 3 2 1 3 6 5 5 5 3 3 3 1 2 8 10 7 5 10 10 8 17 28 32 32 35 40 39 38 40 43 46 48 53 58
18 20 24 20 14 15 13 9 9 6 3 4 5 3 3 4 4 3 2 2 2 1 1 1 2 2 2 1 1 2 1 0 1 2 2 2 4 4 4 2 2 3 3 4 3 0 1 2 2 1 2 5 8 8 6 6 5 5 8 11 10 5 4 4 3 1 4 9 10 6 6 11 9 15 23 25 23 23 31 38 37 37 41 44 43 44 47 49
7 7 12 18 22 24 20 13 12 8 4 5 4 3 4 2 1 2 1 1 3 1 2 1 2 2 2 4 3 3 3 1 2 2 2 3 4 3 4 4 3 4 3 3 4 2 1 2 3 5 6 6 8 11 8 3 5 10 14 19 19 10 4 3 2 4 7 8 8 8 12 12 9 18 22 22 21 20 24 30 30 32 40 44 42 43 46 46
7 3 2 5 11 16 16 13 12 7 3 4 3 1 2 1 2 2 1 1 3 2 1 2 4 3 4 5 4 3 5 5 3 2 2 4 5 5 7 6 3 3 2 2 4 2 2 4 6 8 11 11 12 15 11 5 8 14 15 18 21 16 7 2 6 11 11 8 8 11 13 10 11 18 20 19 19 17 20 26 27 26 31 38 40 43 47 48
7 4 4 5 3 4 7 9 12 12 7 5 4 1 1 2 1 0 1 3 3 5 3 2 5 7 5 4 2 3 6 6 4 3 3 3 4 7 7 4 3 3 2 2 3 3 2 4 6 5 8 12 13 14 13 10 10 12 13 17 18 17 14 12 14 16 12 6 7 13 15 12 13 19 20 18 19 19 20 26 30 31 33 37 40 42 43 45
12 9 7 9 7 5 5 5 9 13 9 4 3 2 2 2 1 1 2 3 3 6 7 4 5 8 6 2 2 1 3 4 4 5 2 3 4 4 4 4 2 2 2 1 3 3 2 3 5 3 7 13 13 12 12 10 8 9 15 18 14 12 14 13 12 12 10 7 9 14 14 11 13 16 18 21 25 26 28 32 35 38 39 37 38 39 41 43
12 11 12 17 15 10 8 5 5 8 6 4 4 2 1 3 1 2 4 5 3 5 7 4 7 9 6 2 2 1 2 2 4 6 2 2 4 2 3 3 2 2 2 1 1 0 2 3 4 3 6 14 13 9 6 5 6 11 15 16 14 12 13 11 10 12 12 11 14 15 12 10 13 19 24 29 30 29 32 35 35 37 39 36 35 38 41 44
18 17 18 19 10 6 6 4 3 5 4 5 3 1 3 3 2 2 3 4 3 2 3 4 6 7 5 3 1 3 6 5 9 14 11 8 9 7 5 2 2 4 5 2 1 1 0 3 4 6 6 13 15 12 10 9 8 8 11 16 16 15 15 10 6 8 10 11 15 16 12 10 13 20 26 28 28 28 30 33 35 38 39 34 34 38 41 42
21 17 15 15 8 6 6 5 5 5 3 4 4 3 3 4 3 2 2 3 4 3 4 5 5 5 4 4 4 8 14 15 18 22 20 19 22 21 20 16 8 4 2 2 2 1 1 1 3 4 4 12 16 15 15 15 10 5 6 12 15 16 16 8 3 7 10 9 10 10 8 9 13 17 18 17 20 24 26 31 37 39 35 31 34 40 41 42
Wind_Direction
145 142 142 140 136 122 125 128 126 113 90 75 66 68 61 97 252 274 288 310 317 321 326 330 333 338 0 90 111 106 89 73 35 5 356 341 302 292 287 275 271 272 283 291 291 297 291 258 352 348 309 305 289 259 259 292 337 11 105 149 252 242 241 234 244 283 279 243 215 191 179 170 195 196 202 221 230 236 236 228 221 221 225 231 244 252 260 258
140 139 142 142 139 133 132 127 117 96 78 67 59 53 39 359 297 301 305 309 313 317 322 327 330 325 331 127 134 125 97 58 353 345 352 356 346 293 283 271 272 271 279 286 289 296 289 267 333 351 321 316 296 241 226 244 2 233 156 202 241 226 231 182 337 296 4 292 222 206 196 190 207 199 196 216 235 234 243 244 236 237 232 226 236 246 254 251
139 142 144 142 140 134 131 120 104 85 70 54 42 34 18 346 320 314 307 310 313 318 324 327 323 311 269 160 154 135 102 65 338 343 350 357 23 50 4 323 310 295 288 295 300 305 299 292 315 336 320 315 289 231 213 190 273 245 158 243 243 237 268 17 9 328 354 322 218 215 208 205 222 208 196 215 242 230 231 236 231 238 236 225 227 238 244 243
143 144 140 138 138 133 126 111 92 73 57 41 31 24 8 347 331 320 313 316 319 327 333 331 329 334 136 148 152 149 144 23 349 357 359 360 55 52 22 355 345 324 308 312 312 321 330 322 318 314 303 298 281 238 205 132 243 278 151 205 237 287 313 333 3 318 314 322 272 230 198 212 231 216 205 203 236 242 233 235 232 236 240 233 229 233 238 241
143 140 135 136 136 129 118 97 80 62 47 37 32 26 15 3 347 330 324 326 333 346 356 27 77 104 106 110 119 153 205 331 356 14 28 62 96 75 45 345 336 324 314 324 328 341 350 336 298 290 281 273 293 284 308 91 195 292 231 208 233 359 298 297 345 326 297 298 300 217 172 225 231 223 221 201 209 241 239 242 245 247 251 249 242 238 236 239
135 133 132 132 129 121 106 87 73 54 45 42 44 44 36 24 7 351 343 349 25 44 76 93 97 101 100 99 90 101 161 87 9 28 59 83 93 80 41 332 327 315 309 306 303 330 328 314 281 267 249 246 281 217 243 321 220 259 275 245 238 285 252 287 311 317 295 287 317 188 208 258 224 240 244 226 234 248 253 253 255 257 254 255 253 247 239 238
123 123 123 123 119 112 98 84 65 50 54 60 61 53 42 30 19 21 43 74 93 101 105 103 104 103 97 90 80 82 108 89 22 34 67 67 55 2 324 301 307 306 313 310 298 322 327 314 281 269 255 265 286 169 333 311 259 205 266 286 264 271 256 276 298 301 281 256 278 288 281 273 224 250 264 252 251 254 259 257 252 247 239 244 248 244 240 240
118 117 117 116 115 109 96 78 57 64 85 76 63 49 39 28 19 37 88 97 114 124 118 112 111 101 79 60 57 53 43 26 7 29 46 33 357 333 316 310 306 305 341 346 325 320 319 319 307 301 274 251 287 93 4 332 307 188 242 293 287 271 255 272 291 283 266 248 260 285 274 257 253 275 281 266 264 263 262 259 256 250 244 245 245 240 236 237
119 117 118 118 117 109 90 68 68 101 104 77 55 40 30 22 16 71 118 112 120 126 126 114 98 51 353 326 315 326 360 348 327 355 15 18 360 342 322 332 332 316 350 349 322 299 294 324 330 324 279 233 154 258 29 10 302 213 244 289 301 285 271 277 273 257 252 250 251 272 269 263 269 292 279 268 271 275 268 262 259 255 251 249 248 243 236 234
121 120 122 123 120 108 79 66 101 122 102 69 46 31 25 23 28 95 115 115 120 120 114 90 52 24 1 328 303 317 341 330 320 345 357 32 24 2 332 326 331 328 342 335 325 293 269 308 314 311 298 284 120 269 15 154 256 295 281 291 289 277 276 270 259 249 246 260 254 246 271 276 276 300 271 273 281 283 271 263 258 254 253 253 252 250 244 239
125 126 130 129 124 100 66 90 123 122 90 59 40 30 27 32 45 91 105 111 122 115 97 81 65 45 25 21 74 62 343 338 342 6 7 36 33 17 1 347 336 336 331 325 338 317 271 278 274 271 292 287 290 300 285 243 274 302 312 311 290 280 277 259 248 249 241 271 263 240 269 278 275 238 246 268 286 279 263 263 260 253 251 253 253 253 251 247
131 135 139 134 123 83 83 118 124 107 76 51 38 31 33 49 63 80 97 117 124 112 99 89 64 44 31 49 60 44 6 360 352 16 18 14 32 25 18 18 11 359 337 329 338 322 276 267 275 273 288 256 264 329 310 281 308 302 323 324 303 323 297 255 241 233 214 236 269 263 291 277 239 226 249 267 286 277 263 260 258 253 253 253 252 253 253 252
142 145 145 141 114 87 109 128 117 91 64 41 31 31 39 64 69 69 88 116 118 105 97 80 45 25 33 60 50 35 20 15 8 16 15 354 19 24 9 15 18 10 1 350 345 344 302 270 292 297 328 345 231 302 308 307 348 305 298 196 310 354 322 263 232 204 200 214 218 62 315 280 236 231 260 284 292 280 266 261 260 254 254 254 253 253 253 254
150 151 151 147 112 109 125 125 102 72 48 37 36 45 56 72 79 80 102 122 118 91 77 63 35 10 38 70 44 27 18 15 13 5 4 353 353 359 332 350 12 16 18 15 12 39 56 25 348 338 26 38 7 276 322 338 19 313 316 2 347 349 298 294 249 167 175 235 194 122 244 274 276 256 274 296 298 287 263 259 263 258 255 253 253 254 254 255
152 155 157 144 119 126 130 113 82 50 37 49 65 72 70 71 85 96 110 122 100 70 84 59 24 14 65 66 29 19 16 15 15 6 3 1 349 347 336 340 4 15 13 12 17 46 53 28 5 19 53 40 18 344 345 347 344 21 5 322 332 314 281 304 297 170 178 253 181 150 240 272 281 281 291 298 301 301 276 268 269 261 256 253 253 253 253 255
147 152 150 138 130 134 128 97 64 46 49 73 82 77 70 68 85 98 100 97 77 60 77 59 33 74 69 36 15 18 19 17 17 9 360 357 349 346 340 335 354 359 341 341 346 2 18 3 8 48 49 26 1 335 1 9 342 4 43 301 300 315 315 316 309 227 197 294 189 200 256 278 282 294 300 298 300 300 287 280 276 266 260 254 253 254 254 255
137 144 143 139 142 143 133 93 59 59 72 86 85 74 67 69 101 114 100 86 81 69 65 62 98 122 60 24 13 7 12 18 16 12 1 352 344 342 340 332 352 352 328 331 334 331 338 351 14 52 44 31 356 15 37 16 331 328 18 339 291 300 320 318 312 322 354 345 272 247 254 267 278 294 298 299 302 295 280 275 274 270 265 258 255 254 255 255
134 141 141 142 149 149 138 90 69 80 89 93 92 83 74 76 93 120 137 101 89 87 68 44 53 131 41 15 4 350 5 23 19 12 360 350 340 335 338 336 354 357 347 354 347 330 330 341 58 51 26 20 10 53 57 338 271 288 320 324 313 314 309 292 292 317 18 358 291 282 273 274 282 292 297 301 306 297 281 276 274 272 267 263 259 256 257 257
141 143 141 143 147 143 126 98 101 105 99 95 93 82 71 72 75 71 74 81 73 79 72 27 37 117 330 3 6 352 6 29 21 10 358 358 359 343 344 344 347 350 351 358 344 333 356 4 46 34 348 335 351 77 133 216 221 251 271 283 295 305 296 279 277 289 1 338 286 274 279 289 298 299 299 304 308 302 288 282 278 276 274 270 264 262 261 258
147 143 140 141 140 136 126 116 121 116 94 77 60 40 35 53 65 61 63 70 70 70 71 44 42 58 22 11 13 7 7 18 14 10 3 2 4 2 3 349 334 335 332 295 277 310 44 52 48 302 264 266 282 218 177 224 238 262 303 315 293 294 292 283 281 301 1 339 264 261 289 298 300 299 299 305 309 306 292 288 288 286 288 287 279 273 265 257
147 142 138 137 137 137 130 125 124 108 75 61 56 56 50 45 65 60 59 68 71 72 67 53 44 38 31 20 15 16 20 17 8 11 12 2 359 8 4 354 354 4 319 275 259 311 56 62 347 250 239 251 272 274 290 312 326 336 334 323 313 293 277 284 285 319 14 4 288 285 310 305 298 299 300 305 308 306 305 302 296 298 312 328 316 292 272 257
144 141 136 134 132 128 125 124 118 102 88 83 77 71 63 61 65 57 79 85 72 71 61 48 44 37 34 27 19 21 27 28 10 10 16 11 11 11 359 10 51 10 337 355 15 4 40 37 297 270 282 316 290 280 319 336 2 1 338 330 322 297 281 295 302 1 8 357 303 311 325 301 293 295 295 305 308 312 328 335 310 313 354 44 48 50 75 87
144 140 135 132 129 125 126 127 117 111 108 94 74 60 55 50 38 25 66 118 63 51 39 34 34 29 31 28 12 18 32 33 359 2 11 11 14 16 8 20 17 350 5 27 48 38 28 313 294 317 354 360 333 340 19 10 9 355 331 328 307 313 337 314 327 354 331 273 280 312 318 292 294 309 302 321 345 354 359 6 2 354 1 44 62 74 86 88
145 142 138 133 130 129 132 134 128 127 126 101 60 43 39 31 25 22 36 118 65 33 26 25 25 22 23 17 5 9 37 31 358 1 8 8 10 14 17 17 10 11 3 10 74 86 59 271 313 344 348 18 357 354 32 27 353 327 302 285 288 304 312 277 303 330 316 289 331 340 333 299 306 337 318 331 356 10 11 9 7 6 13 51 76 84 85 82
145 141 138 132 127 129 131 132 139 142 141 114 33 24 23 18 19 18 25 85 40 357 11 14 14 16 13 6 1 356 56 30 13 9 8 10 12 14 18 12 18 8 339 359 64 80 5 275 336 357 345 22 22 354 21 33 354 330 291 226 251 295 301 297 323 339 342 344 8 42 8 297 302 335 308 321 347 352 6 10 6 14 34 67 77 77 73 72
139 137 134 130 131 132 123 114 139 147 151 100 357 3 3 357 1 7 18 79 17 324 354 2 359 7 7 3 357 353 119 18 17 19 14 12 10 19 22 358 18 15 321 351 54 88 341 315 357 33 359 17 31 5 351 45 24 333 280 224 270 314 316 318 348 360 353 302 298 77 98 272 313 328 293 322 348 337 359 3 7 33 52 62 64 65 62 63
134 135 133 132 137 132 107 122 150 154 146 352 346 343 337 337 340 338 358 66 11 327 349 356 351 358 360 5 10 37 146 336 6 27 20 17 12 29 43 360 11 6 307 11 28 323 331 349 4 30 26 28 32 357 312 52 35 297 264 340 324 320 311 314 354 336 243 280 305 13 124 248 306 294 285 324 360 341 353 356 2 56 80 70 51 54 44 36
135 138 137 136 137 124 116 159 167 168 87 340 330 326 319 323 320 319 81 86 350 338 352 346 357 4 1 14 27 49 82 344 10 22 21 27 23 32 61 24 16 322 325 70 24 307 345 17 4 22 31 28 14 293 274 53 34 267 268 319 306 296 287 288 279 246 265 3 322 321 71 333 284 284 299 340 24 345 332 326 319 49 115 119 102 64 10 9
140 142 143 147 146 123 125 170 190 212 278 312 319 319 313 318 313 330 83 96 319 340 348 350 355 355 357 15 27 28 36 25 25 12 24 34 32 39 90 19 27 334 357 58 58 286 338 35 349 59 57 355 279 263 258 157 248 275 298 311 299 300 276 240 161 249 4 35 278 283 9 52 293 295 309 346 32 330 295 288 286 284 165 157 164 179 188 129
147 150 154 161 160 133 122 181 241 247 281 309 318 319 315 324 345 67 49 41 313 340 336 357 348 338 354 11 10 6 17 25 13 18 29 34 35 41 63 11 22 48 18 24 48 286 306 327 331 68 100 259 272 285 273 190 242 306 344 334 327 5 34 53 70 74 45 348 258 256 189 98 304 291 282 292 311 258 265 285 290 297 300 232 207 205 176 117
155 159 163 173 181 175 157 297 303 277 305 318 323 326 323 340 51 90 55 321 304 346 342 352 338 342 3 27 2 351 352 359 5 23 25 23 31 33 38 15 7 28 18 5 10 345 348 19 340 326 304 312 322 315 314 145 20 360 17 6 352 353 9 18 0 37 45 304 262 260 319 95 244 267 273 282 288 266 242 262 273 283 292 282 262 249 216 142
159 164 169 182 197 213 237 277 306 307 318 326 327 326 329 41 36 78 351 325 328 353 346 315 323 341 351 12 14 348 335 351 3 29 36 25 38 32 39 33 353 9 14 360 354 346 350 328 305 302 312 2 24 342 339 0 23 22 21 33 29 358 358 359 338 3 1 275 266 295 338 291 244 251 269 281 291 297 269 254 254 265 280 290 289 271 238 186
160 165 178 191 203 229 251 279 305 313 321 327 327 337 70 81 38 333 308 340 359 335 328 293 305 318 339 17 7 340 348 360 358 13 26 47 60 37 37 34 22 32 347 339 0 352 338 308 323 349 342 18 59 29 356 333 342 354 11 67 69 36 7 324 303 329 310 280 289 309 305 271 292 272 259 272 292 306 297 269 268 285 289 296 296 289 263 208
152 155 177 201 223 256 287 300 309 321 330 335 347 49 66 74 36 339 338 310 293 335 339 309 316 333 15 44 355 339 9 347 354 19 14 28 40 15 9 8 15 34 238 8 22 16 6 317 314 6 328 349 40 79 166 251 298 293 209 130 114 115 126 252 256 291 292 286 301 318 306 246 301 294 274 282 296 306 303 288 306 314 311 311 303 292 322 333
142 142 146 103 288 296 320 319 321 328 333 37 68 65 67 81 259 352 333 283 303 331 318 324 359 17 14 1 336 11 37 321 344 38 33 32 45 13 2 347 351 15 43 26 354 25 29 278 262 284 277 249 317 220 180 129 311 271 181 89 61 183 166 200 227 230 266 297 295 305 283 236 282 292 287 293 303 310 315 315 319 317 319 324 319 284 270 294
121 109 91 56 14 14 5 3 2 334 88 97 76 52 86 132 238 148 313 309 344 316 315 345 27 35 355 335 341 357 15 330 346 32 37 39 57 23 6 309 329 16 58 55 311 351 22 279 279 321 317 211 185 216 204 181 289 322 27 3 249 195 154 168 271 266 332 313 280 278 284 293 333 300 299 330 323 316 322 320 315 311 318 328 320 271 261 274
106 93 81 66 54 62 68 55 49 83 96 87 74 77 138 178 209 186 303 326 299 288 1 26 24 23 352 340 336 333 344 358 360 22 22 12 29 11 358 307 313 23 68 91 284 248 175 287 289 309 302 266 205 217 259 231 195 47 301 262 267 86 111 129 282 335 5 297 277 287 283 291 349 298 306 334 320 314 320 317 312 311 316 323 312 281 267 275
101 91 74 61 55 58 62 53 67 102 88 75 71 108 107 95 188 236 305 332 278 319 57 64 15 47 31 350 320 316 342 10 357 8 24 9 6 40 40 333 310 357 356 350 304 275 160 304 296 275 274 285 268 70 315 278 211 177 254 272 10 8 313 338 320 313 317 290 283 287 285 283 218 242 286 310 304 312 315 311 311 309 315 320 316 302 285 280
93 81 59 48 55 50 39 62 111 94 81 72 84 90 89 170 333 320 335 345 260 88 61 32 313 32 37 45 327 312 344 13 346 2 49 26 343 52 87 358 302 336 342 348 199 295 14 328 293 290 297 312 344 35 339 305 299 343 335 325 353 185 214 245 210 172 238 266 277 289 293 287 219 219 262 283 294 306 304 303 305 308 315 317 316 312 300 287
91 79 52 49 79 75 73 103 90 75 70 78 115 96 96 140 326 341 12 5 312 97 66 309 19 17 349 9 1 324 347 348 327 358 53 6 330 327 87 77 299 325 336 2 146 319 5 130 269 288 311 344 353 294 249 274 289 338 349 315 288 265 242 279 269 163 183 231 254 286 289 282 262 251 280 291 301 303 301 308 314 317 319 318 317 314 306 297
96 85 45 56 94 93 94 85 64 56 62 76 79 85 62 77 355 358 19 18 42 73 100 141 87 64 352 360 351 325 335 325 327 22 3 353 13 338 302 42 286 316 342 21 38 336 347 167 242 293 324 332 282 253 208 212 216 189 223 245 241 253 302 320 289 260 187 194 210 258 280 279 280 295 299 295 295 295 306 316 317 317 316 315 316 315 312 305
88 75 23 47 88 107 95 72 36 29 78 73 71 86 84 105 47 17 17 23 29 29 55 90 89 70 67 342 317 309 331 317 324 18 339 246 71 205 246 324 315 279 318 319 277 248 145 120 206 267 271 261 273 274 188 193 207 181 215 216 213 216 145 203 266 275 282 258 231 234 263 273 284 299 292 300 324 336 339 339 339 335 332 334 339 342 341 330
74 65 37 56 92 107 95 73 17 30 72 100 116 81 72 87 51 19 14 26 11 357 36 46 71 58 211 218 344 306 248 225 264 318 290 252 252 218 209 311 307 236 173 257 284 15 77 111 117 282 279 271 280 291 117 127 71 266 263 231 207 240 179 200 231 237 261 275 270 252 254 272 288 307 356 6 4 359 354 354 358 359 358 0 1 1 1 357
74 65 55 56 105 113 97 97 89 77 86 114 84 60 59 61 49 29 16 18 5 41 66 354 170 50 247 199 153 243 247 68 228 265 302 249 257 236 203 325 313 211 179 228 254 23 317 225 51 332 325 326 323 338 351 315 344 265 267 254 226 227 223 250 270 134 237 263 258 249 251 267 286 353 18 12 6 0 356 356 1 4 4 5 3 360 360 360
76 65 57 61 85 97 93 114 128 122 140 104 69 41 56 48 36 43 45 25 30 93 136 265 251 248 273 219 156 279 295 73 257 319 350 279 275 248 215 278 295 214 224 238 209 139 272 219 118 83 312 316 318 316 308 306 316 298 284 288 284 252 206 249 299 240 232 258 256 244 257 269 307 10 14 6 0 356 353 352 355 358 358 358 357 356 355 355
77 68 54 58 74 82 82 94 106 108 132 113 70 26 51 44 337 25 40 59 37 54 179 331 287 251 348 29 24 325 309 298 291 335 346 289 283 266 247 285 280 224 243 246 205 175 25 256 213 187 203 231 255 267 276 305 302 293 293 295 297 292 208 191 292 261 252 272 269 256 268 282 343 13 5 356 355 350 347 347 348 351 351 350 349 348 347 346
72 58 36 59 66 67 66 66 72 83 121 120 102 39 46 349 301 349 303 269 9 357 189 59 38 38 9 10 20 331 312 330 335 319 305 274 270 291 288 276 255 230 218 195 199 161 49 297 250 211 220 235 246 261 279 302 278 278 286 286 290 300 304 274 267 263 265 281 285 292 306 326 9 7 354 349 349 343 340 340 337 335 339 343 344 343 343 342
85 91 83 95 88 53 55 51 59 72 80 92 109 145 72 22 349 330 291 308 3 20 22 21 29 29 1 345 29 335 322 342 340 302 311 306 313 329 314 270 207 214 187 157 204 169 119 278 252 212 237 252 254 264 276 278 272 275 278 279 287 300 304 289 275 279 286 295 315 339 357 13 10 356 347 342 338 330 327 329 328 329 334 339 341 342 341 340
106 108 80 83 96 97 97 81 73 75 68 68 84 79 126 105 4 276 338 350 2 16 25 18 346 351 341 327 97 19 326 348 323 302 314 321 314 320 307 290 224 198 171 169 234 192 145 272 266 248 274 275 269 266 263 263 280 290 285 290 302 307 300 294 298 318 346 15 5 359 8 13 0 349 340 331 326 322 323 329 333 336 336 336 339 341 340 338
112 115 105 99 91 77 80 77 78 80 50 35 73 48 96 112 34 343 24 34 4 352 21 22 319 320 318 297 130 193 258 184 233 259 248 340 315 242 238 277 261 279 329 347 272 183 151 274 309 357 311 296 293 287 269 254 280 294 304 324 344 351 351 358 1 4 16 17 2 358 0 355 347 342 333 326 322 323 329 331 332 333 333 333 338 340 338 335
114 118 116 107 83 34 54 48 50 88 35 14 58 13 4 50 28 8 34 45 59 13 6 353 315 315 331 360 95 244 266 247 248 261 262 261 258 241 238 268 28 359 341 333 320 17 107 282 338 24 336 301 303 318 328 318 304 313 345 1 4 8 17 35 47 32 29 10 357 360 358 342 333 331 326 318 316 320 326 329 329 329 329 333 339 338 333 330
113 116 112 104 84 12 24 19 22 67 48 2 41 32 29 49 27 37 52 27 46 41 358 351 340 334 349 352 327 297 298 297 287 283 277 262 253 252 256 266 283 298 301 327 317 257 137 320 331 7 327 293 301 324 333 323 325 1 18 5 7 11 10 10 49 46 42 28 6 355 331 306 304 309 308 309 318 322 322 324 324 322 323 331 335 331 326 323